Nashua, NH

9:21 PM EST on December 06, 2019 (GMT -0500)
Boire

Weather History for KASH - June, 2019

Change the Weather History Date:

Monday, June 10, 2019

  Actual Average Record
Temperature  
Mean Temperature 70 °F -  
Max Temperature 82 °F 76 °F 99 °F (2008)
Min Temperature 57 °F 51 °F 34 °F (1975)
Cooling Degree Days 4    
Growing Degree Days 20 (Base 50)    
Moisture  
Dew Point 52 °F    
Average Humidity 56    
Maximum Humidity 100    
Minimum Humidity 31    
Precipitation  
Precipitation 0.00 in - - ()
Sea Level Pressure  
Sea Level Pressure 30.16 in    
Wind  
Wind Speed 3 mph ()    
Max Wind Speed 12 mph    
Max Gust Speed 16 mph    
Visibility 10.0 miles    
Events Rain    
Averages and records for this station are not official NWS values.
T = Trace of Precipitation, MM = Missing Value Source: Averaged Metar Reports

Daily Weather History Graph

Daily Weather History Graph

Search for Another Location

Airport or City:

Astronomy

Jun. 10, 2019 Rise Set
Actual Time 5:07 AM EDT 8:23 PM EDT
Civil Twilight 4:32 AM EDT 8:58 PM EDT
Nautical Twilight 3:47 AM EDT 9:43 PM EDT
Astronomical Twilight 2:52 AM EDT 10:39 PM EDT
Moon 12:59 PM EDT (6/10) 1:29 AM EDT (6/10)
Length of Visible Light 16h 25m
Length of Day
15h 16m
First Quarter, 55% of the Moon is Illuminated
Jun 10
First Quarter
Jun 17
Full
Jun 25
Last Quarter
Jul 2
New
Jul 9
First Quarter

Hourly Weather History & Observations

Time (EDT) Temp. Heat Index Dew Point Humidity Pressure Visibility Wind Dir Wind Speed Gust Speed Precip Events Conditions
12:56 AM 61.0 °F - 50.0 °F 67% 30.28 in 10.0 mi Calm Calm - N/A   Clear
1:56 AM 59.0 °F - 50.0 °F 72% 30.27 in 10.0 mi Calm Calm - N/A   Clear
2:56 AM 57.9 °F - 46.9 °F 67% 30.27 in 10.0 mi Calm Calm - N/A   Clear
3:56 AM 57.9 °F - 46.9 °F 67% 30.26 in 10.0 mi Calm Calm - N/A   Clear
4:56 AM 57.0 °F - 46.0 °F 67% 30.26 in 10.0 mi Calm Calm - N/A   Clear
5:56 AM 57.0 °F - 46.0 °F 67% 30.26 in 10.0 mi Calm Calm - N/A   Clear
6:56 AM 59.0 °F - 46.9 °F 64% 30.25 in 10.0 mi Variable 3.5 mph - N/A   Clear
7:56 AM 64.0 °F - 44.1 °F 48% 30.25 in 10.0 mi Variable 4.6 mph - N/A   Clear
8:56 AM 66.9 °F - 45.0 °F 45% 30.25 in 10.0 mi Variable 3.5 mph - N/A   Clear
9:56 AM 71.1 °F - 45.0 °F 39% 30.23 in 10.0 mi Variable 4.6 mph - N/A   Clear
10:56 AM 73.9 °F - 46.0 °F 37% 30.22 in 10.0 mi SE 4.6 mph - N/A   Clear
11:56 AM 75.9 °F - 46.0 °F 35% 30.20 in 10.0 mi Variable 6.9 mph - N/A   Clear
12:56 PM 77.0 °F - 46.9 °F 34% 30.18 in 10.0 mi SE 6.9 mph - N/A   Clear
1:56 PM 81.0 °F - 48.0 °F 31% 30.15 in 10.0 mi SE 8.1 mph - N/A   Clear
2:56 PM 82.0 °F - 51.1 °F 34% 30.12 in 10.0 mi SE 9.2 mph - N/A   Clear
3:56 PM 81.0 °F 80.5 °F 54.0 °F 39% 30.09 in 10.0 mi Variable 3.5 mph - N/A   Clear
4:56 PM 82.0 °F 81.6 °F 55.9 °F 41% 30.07 in 10.0 mi ESE 8.1 mph - N/A   Clear
5:56 PM 80.1 °F 80.4 °F 57.0 °F 45% 30.06 in 10.0 mi SE 8.1 mph - N/A   Clear
6:56 PM 77.0 °F - 55.9 °F 48% 30.06 in 10.0 mi SE 6.9 mph - N/A   Clear
7:56 PM 73.9 °F - 59.0 °F 59% 30.04 in 10.0 mi ESE 11.5 mph - N/A   Overcast
8:56 PM 73.0 °F - 63.0 °F 71% 30.03 in 10.0 mi ESE 10.4 mph - N/A   Overcast
9:56 PM 72.0 °F - 64.0 °F 76% 30.01 in 10.0 mi ESE 11.5 mph 16.1 mph N/A   Overcast
10:56 PM 70.0 °F - 64.9 °F 84% 30.00 in 10.0 mi ESE 11.5 mph - N/A   Overcast
11:56 PM 66.9 °F - 66.9 °F 100% 29.98 in 10.0 mi ESE 8.1 mph - 0.00 in Rain Light Rain